Change the Weather History Date:

Sunday, January 27, 2013

  Actual Average Record
Temperature  
Mean Temperature 45 °F -  
Max Temperature 53 °F 56 °F 62 °F (1997)
Min Temperature 37 °F 40 °F 30 °F (2000)
Degree Days  
Heating Degree Days 20    
Moisture  
Dew Point 32 °F    
Average Humidity 63    
Maximum Humidity 81    
Minimum Humidity 38    
Precipitation  
Precipitation 0.00 in 0.13 in - ()
Sea Level Pressure  
Sea Level Pressure 29.94 in    
Wind  
Wind Speed 5 mph ()    
Max Wind Speed 9 mph    
Max Gust Speed -    
Visibility 6.2 miles    
Events      
Averages and records for this station are not official NWS values.
T = Trace of Precipitation, MM = Missing Value Source: Averaged Metar Reports

Daily Weather History Graph

Daily Weather History Graph

Search for Another Location

Airport or City:

Trip Planner

Search our weather history database for the weather conditions in past years. The results will help you decide how hot, cold, wet, or windy it might be!

Date:

Astronomy

Jan. 27, 2013 Rise Set
Actual Time 7:17 AM CET 5:13 PM CET
Civil Twilight 6:48 AM CET 5:43 PM CET
Nautical Twilight 6:15 AM CET 6:16 PM CET
Astronomical Twilight 5:42 AM CET 6:48 PM CET
Moon 5:51 PM CET (1/27) 7:00 AM CET (1/27)
Length of Visible Light 10h 55m
Length of Day
9h 56m
Full, 100% of the Moon is Illuminated
Jan 27
Full
Feb 3
Last Quarter
Feb 10
New
Feb 17
First Quarter
Feb 25
Full

Hourly Weather History & Observations

Time (CET) Temp. Windchill Dew Point Humidity Pressure Visibility Wind Dir Wind Speed Gust Speed Precip Events Conditions
12:20 AM 39.2 °F 37.0 °F 30.2 °F 70% 29.83 in 6.2 mi NW 3.5 mph - N/A   Partly Cloudy
12:50 AM 41.0 °F 39.0 °F 30.2 °F 65% 29.86 in 6.2 mi Variable 3.5 mph - N/A   Partly Cloudy
1:20 AM 39.2 °F 34.2 °F 30.2 °F 70% 29.86 in 6.2 mi NW 6.9 mph - N/A   Partly Cloudy
1:50 AM 41.0 °F 38.0 °F 30.2 °F 65% 29.86 in 6.2 mi NNW 4.6 mph - N/A   Partly Cloudy
2:20 AM 41.0 °F 37.1 °F 30.2 °F 65% 29.89 in 6.2 mi North 5.8 mph - N/A   Partly Cloudy
2:50 AM 39.2 °F 34.2 °F 30.2 °F 70% 29.89 in 6.2 mi North 6.9 mph - N/A   Partly Cloudy
3:20 AM 39.2 °F 33.6 °F 30.2 °F 70% 29.89 in 6.2 mi North 8.1 mph - N/A   Partly Cloudy
3:50 AM 39.2 °F 34.2 °F 30.2 °F 70% 29.89 in 6.2 mi North 6.9 mph - N/A   Partly Cloudy
4:20 AM 39.2 °F 33.6 °F 30.2 °F 70% 29.89 in 6.2 mi NNE 8.1 mph - N/A   Scattered Clouds
4:50 AM 39.2 °F 35.0 °F 30.2 °F 70% 29.89 in 6.2 mi North 5.8 mph - N/A   Scattered Clouds
5:20 AM 39.2 °F 33.0 °F 30.2 °F 70% 29.89 in 6.2 mi NE 9.2 mph - N/A   Scattered Clouds
5:50 AM 39.2 °F 34.2 °F 30.2 °F 70% 29.89 in 6.2 mi NE 6.9 mph - N/A   Scattered Clouds
6:20 AM 39.2 °F 35.0 °F 30.2 °F 70% 29.89 in 6.2 mi North 5.8 mph - N/A   Scattered Clouds
6:50 AM 39.2 °F 35.0 °F 30.2 °F 70% 29.92 in 6.2 mi NNW 5.8 mph - N/A   Partly Cloudy
7:20 AM 37.4 °F 33.8 °F 30.2 °F 75% 29.92 in 6.2 mi NNW 4.6 mph - N/A   Partly Cloudy
7:50 AM 37.4 °F 34.9 °F 30.2 °F 75% 29.92 in - NNW 3.5 mph - N/A   Clear
8:20 AM 39.2 °F 35.0 °F 30.2 °F 70% 29.92 in - NW 5.8 mph - N/A   Clear
8:50 AM 42.8 °F 39.3 °F 30.2 °F 61% 29.95 in - NNW 5.8 mph - N/A   Clear
9:20 AM 44.6 °F 41.4 °F 30.2 °F 57% 29.95 in - NNW 5.8 mph - N/A   Clear
9:50 AM 46.4 °F 43.5 °F 32.0 °F 57% 29.95 in - North 5.8 mph - N/A   Clear
10:20 AM 46.4 °F 43.5 °F 32.0 °F 57% 29.95 in - North 5.8 mph - N/A   Clear
10:50 AM 48.2 °F - 32.0 °F 54% 29.98 in - North 3.5 mph - N/A   Clear
11:20 AM 50.0 °F - 32.0 °F 50% 29.98 in - NNE 3.5 mph - N/A   Clear
11:50 AM 50.0 °F - 32.0 °F 50% 29.95 in - NNE 4.6 mph - N/A   Clear
12:20 PM 51.8 °F - 32.0 °F 47% 29.95 in - NNE 5.8 mph - N/A   Clear
12:50 PM 51.8 °F - 32.0 °F 47% 29.95 in - NNE 4.6 mph - N/A   Clear
1:20 PM 53.6 °F - 32.0 °F 44% 29.95 in - Variable 2.3 mph - N/A   Clear
1:50 PM 53.6 °F - 32.0 °F 44% 29.95 in - Variable 2.3 mph - N/A   Clear
2:20 PM 53.6 °F - 28.4 °F 38% 29.95 in - WSW 3.5 mph - N/A   Clear
2:50 PM 53.6 °F - 30.2 °F 41% 29.95 in - WNW 3.5 mph - N/A   Clear
3:20 PM 53.6 °F - 30.2 °F 41% 29.95 in - Variable 2.3 mph - N/A   Clear
3:50 PM 53.6 °F - 30.2 °F 41% 29.95 in - Variable 1.2 mph - N/A   Clear
4:20 PM 51.8 °F - 32.0 °F 47% 29.95 in - NNW 6.9 mph - N/A   Clear
4:50 PM 50.0 °F - 33.8 °F 54% 29.95 in - WNW 9.2 mph - N/A   Clear
5:20 PM 48.2 °F - 33.8 °F 58% 29.98 in - WNW 9.2 mph - N/A   Clear
5:50 PM 48.2 °F - 35.6 °F 62% 29.98 in - WNW 6.9 mph - N/A   Clear
6:20 PM 46.4 °F 43.5 °F 35.6 °F 66% 29.98 in - WNW 5.8 mph - N/A   Clear
6:50 PM 46.4 °F 43.5 °F 35.6 °F 66% 29.98 in - WNW 5.8 mph - N/A   Clear
7:20 PM 46.4 °F - 35.6 °F 66% 29.98 in - Variable 2.3 mph - N/A   Clear
7:50 PM 44.6 °F - 35.6 °F 71% 29.98 in - Variable 2.3 mph - N/A   Clear
8:20 PM 44.6 °F - 35.6 °F 71% 29.98 in - SW 2.3 mph - N/A   Clear
8:50 PM 42.8 °F - 35.6 °F 76% 29.98 in - Calm Calm - N/A   Clear
9:20 PM 41.0 °F 39.0 °F 33.8 °F 76% 29.98 in - ENE 3.5 mph - N/A   Clear
9:50 PM - - - N/A% - - NE 2.3 mph - N/A   Unknown
10:20 PM 39.2 °F - 33.8 °F 81% 29.98 in - NNE 2.3 mph - N/A   Clear
10:50 PM 41.0 °F - 33.8 °F 76% 29.98 in - Calm Calm - N/A   Clear
11:20 PM 39.2 °F - 33.8 °F 81% 29.98 in - West 2.3 mph - N/A   Clear
11:50 PM 41.0 °F - 35.6 °F 81% 29.98 in - West 2.3 mph - N/A   Clear